Location: Filler
(36.7551°N, 30.4456°E)
Time: 02:05:31
(UTC+00:00)

Daily predictions for brighter satellites

Satellite Brightness Start Highest point End
(mag) Time Altitude Azimuth Time Altitude Azimuth Time Altitude Azimuth
COSMOS 2441 4.4 00:00:53 10° NNE 00:05:43 74° ESE 00:06:46 53° SSE
Meteor 2-13 Rocket 4.4 00:03:08 10° NNW 00:09:11 68° W 00:11:04 45° SSW
SL-16 R/B 3.6 00:04:06 10° SE 00:09:55 43° ENE 00:15:44 10° N
Cosmos 1844 Rocket 3.1 00:09:59 40° WSW 00:11:18 48° WNW 00:16:41 10° N
Cosmos 2239 Rocket 4.4 00:11:24 45° SSW 00:13:19 71° W 00:19:28 10° N
Cosmos 1606 Rocket 3.5 00:09:28 10° N 00:13:54 86° E 00:14:45 57° SSE
CZ-2C R/B 2.9 00:10:46 10° N 00:16:01 83° WNW 00:17:24 50° SSW
Cosmos 1727 Rocket 4.2 00:16:39 10° NNW 00:22:47 54° W 00:24:57 37° SW
Alouette 2 Rocket 3.5 00:21:47 47° S 00:22:57 76° E 00:26:42 10° NNE
SL-24 DEB 4.2 00:19:24 10° N 00:23:59 83° E 00:25:26 44° S
Cosmos 1726 Rocket 3.5 00:23:22 10° N 00:27:48 90° E 00:29:14 43° S
Cosmos 1000 Rocket 4.5 00:24:12 10° NNW 00:30:24 68° W 00:33:26 31° SSW
CZ-2D R/B 2.5 00:28:58 10° N 00:34:03 47° WNW 00:35:45 35° WSW
CZ-2C R/B 2.8 00:34:15 38° SSW 00:35:52 51° W 00:41:06 10° NNW
USA 81 4.3 00:31:16 10° N 00:36:31 69° E 00:40:26 18° SSE
Cosmos 1238 Rocket 3.8 00:34:35 10° NNE 00:37:22 30° E 00:38:52 19° SE
ADEOS II 2.1 00:33:07 10° N 00:38:19 66° WNW 00:40:28 35° SW
ALOS 2.3 00:34:36 10° NNE 00:39:13 73° ESE 00:41:24 31° S
NOSS 2-2 (E) 3.3 00:39:38 44° SSE 00:40:12 51° ESE 00:43:18 10° NE
SWAS 4.3 00:40:49 44° SSW 00:42:07 83° ESE 00:46:19 10° NNE
Cosmos 2278 Rocket 4.1 00:39:20 10° SSE 00:43:40 23° E 00:48:01 10° NE
Lacrosse 5 3.7 00:41:07 14° SSE 00:43:51 22° ESE 00:47:39 10° ENE
ASTEX 1 3.3 00:41:59 33° S 00:44:08 69° W 00:48:59 10° N
Cosmos 1607 3.9 00:38:06 10° NNW 00:44:27 74° WSW 00:50:38 10° SSE
ATLAS 5 CENTAUR R/B 0.6 00:46:06 62° SW 00:46:37 86° NW 00:50:00 10° NNE
CZ-2C R/B 4.2 00:44:03 10° NE 00:47:46 24° E 00:51:29 10° SSE
AQUA 3.9 00:44:47 10° N 00:49:26 61° WNW 00:51:26 33° SW
FENGYUN 3A 3.9 00:44:41 10° N 00:49:55 53° WNW 00:52:26 29° SW
Cosmos 1603 4.4 00:46:22 10° NW 00:51:26 33° WSW 00:53:01 28° SW
Timation 2 Rocket 4.4 00:52:23 26° SW 00:55:59 51° WNW 01:02:12 10° NNE
SEDSat Delta rocket 3.4 00:55:45 34° SSW 00:56:04 35° S 00:59:46 10° ESE
Cosmos 2298 Rocket 4.0 00:55:14 28° SSW 00:58:04 72° WNW 01:03:24 10° NNE
Cosmos 1535 Rocket 4.4 00:54:45 23° SSW 00:58:46 71° W 01:04:55 10° N
Cosmos 1271 Rocket 4.3 00:56:05 10° SSE 00:59:08 28° E 01:02:16 10° NNE
Cosmos 1812 2.7 00:56:08 10° NNW 00:59:35 51° W 01:00:35 37° SW
Resurs 1-4 Rocket 3.4 00:56:51 10° NNW 01:01:06 25° WNW 01:03:21 19° WSW
Cosmos 2058 3.4 01:04:15 30° SW 01:05:40 41° W 01:09:33 10° N
Delta 2 Rocket 4.5 01:08:32 22° S 01:08:32 22° S 01:11:08 10° SSE
Meteor 2-19 Rocket 4.4 01:02:27 10° N 01:08:36 73° W 01:14:43 10° S
Cosmos 724 4.3 01:03:58 10° NW 01:09:40 58° WSW 01:15:25 10° SSE
NOSS 2-2 (C) 3.8 01:09:56 25° W 01:11:06 33° NW 01:13:58 10° NNE
Cosmos 1758 Rocket 3.9 01:08:01 13° S 01:11:54 65° E 01:16:15 10° NNE
Cosmos 1605 Rocket 4.0 01:10:50 18° SSW 01:15:27 62° W 01:21:32 10° N
BlueWalker 3 4.1 01:12:27 10° NNW 01:15:43 28° NE 01:18:59 10° E
Cosmos 2058 Rocket 3.3 01:11:56 10° NNW 01:16:10 48° W 01:19:08 18° SSW
SAR-Lupe-4 4.0 01:13:41 10° N 01:17:06 46° WNW 01:18:49 25° SW
NOSS 2-3 (D) 3.3 01:16:58 25° SW 01:18:54 59° NW 01:22:40 10° NNE
Envisat 3.0 01:16:57 10° NNE 01:22:03 87° WNW 01:26:42 12° SSW
IRS-1D 4.4 01:17:52 10° NNE 01:22:47 46° E 01:27:34 10° S
H-2A R/B 4.2 01:18:57 10° NE 01:23:01 23° E 01:26:58 10° SE
NOSS 2-2 (D) 3.5 01:21:33 23° WSW 01:23:17 42° WNW 01:26:18 10° NNE
Cosmos 1862 3.7 01:22:22 10° S 01:26:07 59° E 01:29:51 10° NNE
Cosmos 1544 4.1 01:27:16 17° W 01:27:28 17° WNW 01:29:16 10° NNW
Cosmos 1500 3.8 01:24:52 10° S 01:28:11 48° E 01:31:30 10° NNE
Cosmos 1833 Rocket 3.4 01:23:14 10° NNW 01:28:48 58° ENE 01:34:20 10° SE
Iridium 4 Rocket 3.8 01:25:35 10° NNW 01:30:01 43° W 01:34:22 12° SSW
Cosmos 1626 Rocket 4.0 01:28:24 17° SSW 01:31:34 46° W 01:35:49 10° N
Meteor 2-2 Rocket 4.2 01:31:29 10° N 01:37:08 88° W 01:42:46 10° S
USA 276 1.8 01:35:23 20° SW 01:37:19 87° NW 01:40:13 10° NE
Aurora 2 Rocket 4.4 01:36:10 13° SSW 01:38:57 21° SSE 01:43:23 10° ESE
METEOR-M 4.2 01:34:06 10° N 01:39:23 63° WNW 01:44:38 10° SSW
Cosmos-2242 3.0 01:38:31 10° NNW 01:42:46 60° W 01:46:57 10° S
CZ-4 R/B 4.0 01:38:02 10° N 01:42:56 62° WNW 01:47:50 10° SSW
Cosmos 1943 Rocket 3.2 01:37:54 10° S 01:43:15 46° ESE 01:48:38 10° NE
USA 267 3.6 01:38:12 10° NE 01:44:36 59° NW 01:50:57 10° WSW
YAOGAN 6 2.2 01:46:01 10° N 01:49:11 70° WNW 01:52:19 10° SSW
ISS -1.4 01:47:36 10° S 01:49:53 17° SE 01:52:10 10° E
PAYLOAD A 4.1 01:46:42 10° N 01:52:01 81° WNW 01:57:26 10° SSW
SL-16 R/B 3.5 01:48:20 10° SSW 01:53:33 28° W 01:58:46 10° NW
Cosmos 1782 3.3 01:52:20 10° NNW 01:55:55 38° W 01:59:28 10° SSW
Meteor 1-26 Rocket 4.2 01:52:38 10° N 01:58:03 84° E 02:03:25 10° S
Cosmos 1378 2.8 01:55:18 10° NNW 01:58:32 58° W 02:01:43 10° S
Genesis I 3.9 01:57:26 10° NW 02:00:35 28° WSW 02:03:44 10° S
Aureole 2 4.4 02:01:59 10° SSW 02:05:01 49° WNW 02:07:53 10° N
Meteor 2-3 Rocket 4.4 01:59:45 10° SW 02:05:08 39° WNW 02:10:33 10° N
Cosmos 1602 4.1 02:04:08 10° S 02:07:38 61° E 02:11:11 10° NNE
Cosmos 1269 Rocket 4.2 02:03:13 10° NNW 02:08:33 83° ENE 02:13:50 10° SSE
Cosmos 2173 Rocket 4.1 02:04:14 10° SSW 02:10:25 66° W 02:16:33 10° N
Cosmos 1802 Rocket 4.2 02:04:10 10° S 02:10:35 89° E 02:17:03 10° N
Cosmos 1459 Rocket 4.1 02:05:10 10° SSW 02:11:21 69° W 02:17:41 10° N
